Tracking 25710 objects as of 6-Jul-2022
HD Live streaming from Space Station
objects crossing your sky now

STARLINK-2466

Track STARLINK-2466 now!
10-day predictions
STARLINK-2466 is classified as:


NORAD ID: 48125
Int'l Code: 2021-027AK
Perigee: 553.3 km
Apogee: 555.5 km
Inclination: 53.1 °
Period: 95.6 minutes
Semi major axis: 6925 km
RCS: Unknown
Launch date: April 7, 2021
Source: United States (US)
Launch site: AIR FORCE EASTERN TEST RANGE (AFETR)
aabbcc
Your satellite tracking list
Your tracking list is empty




NASA's NSSDC Master Catalog

Two Line Element Set (TLE):
1 48125U 21027AK  22186.40449183 -.00001272  00000-0 -66538-4 0  9990
2 48125  53.0551  82.1036 0001604  73.7119 286.4046 15.06389788 69954
Source of the keplerian elements: AFSPC